This is the latest recevied weather packets stored in our database for station/object K4ROM-1. If no packets are shown the sender has not sent any weather packets the latest 10 day(s).
| Time | Temp. | Humidity | Pressure | Rain* | Wind** | Luminosity | Snow |
|---|---|---|---|---|---|---|---|
| 1778017203 | 26.67° C | 40% | 1014.9 hPa | 0 mm | 0.45 m/s, 285° | - | - |
| 1778016603 | 27.22° C | 38% | 1014.9 hPa | 0 mm | 0.89 m/s, 138° | - | - |
| 1778016003 | 26.67° C | 39% | 1014.9 hPa | 0 mm | 0.45 m/s, 157° | - | - |
| 1778015403 | 26.67° C | 37% | 1015 hPa | 0 mm | 0.89 m/s, 241° | - | - |
| 1778014803 | 27.78° C | 37% | 1015 hPa | 0 mm | 1.79 m/s, 56° | - | - |
| 1778014203 | 27.78° C | 37% | 1014.9 hPa | 0 mm | 0.89 m/s, 195° | - | - |
| 1778013603 | 27.22° C | 37% | 1015.2 hPa | 0 mm | 0.45 m/s, 312° | - | - |
| 1778013003 | 27.78° C | 37% | 1015.2 hPa | 0 mm | 0 m/s | - | - |
| 1778012403 | 27.78° C | 37% | 1015.3 hPa | 0 mm | 0.89 m/s, 161° | - | - |
| 1778011803 | 27.78° C | 37% | 1015 hPa | 0 mm | 2.68 m/s, 208° | - | - |
| 1778011203 | 27.78° C | 37% | 1015.3 hPa | 0 mm | 0.45 m/s, 222° | - | - |
| 1778010603 | 27.78° C | 37% | 1015.5 hPa | 0 mm | 0.89 m/s, 246° | - | - |
| 1778010003 | 27.78° C | 37% | 1015.6 hPa | 0 mm | 0.45 m/s, 314° | - | - |
| 1778009403 | 28.33° C | 36% | 1015.8 hPa | 0 mm | 0.89 m/s, 253° | - | - |
| 1778008803 | 27.22° C | 36% | 1016.3 hPa | 0 mm | 0.45 m/s, 84° | - | - |
| 1778008203 | 28.33° C | 34% | 1016.4 hPa | 0 mm | 0.45 m/s, 268° | - | - |
| 1778007603 | 28.33° C | 36% | 1016.3 hPa | 0 mm | 0.89 m/s, 242° | - | - |
| 1778007003 | 27.78° C | 37% | 1016.7 hPa | 0 mm | 0.45 m/s, 293° | - | - |
| 1778006403 | 27.22° C | 37% | 1016.7 hPa | 0 mm | 0.89 m/s, 264° | - | - |
| 1778005803 | 26.11° C | 37% | 1016.9 hPa | 0 mm | 4.02 m/s, 257° | - | - |
| 1778005203 | 26.11° C | 38% | 1017 hPa | 0 mm | 1.34 m/s, 228° | - | - |
| 1778004603 | 26.67° C | 36% | 1016.9 hPa | 0 mm | 1.34 m/s, 300° | - | - |
| 1778004003 | 25.56° C | 37% | 1017 hPa | 0 mm | 0.89 m/s, 238° | - | - |
| 1778003403 | 26.67° C | 36% | 1017 hPa | 0 mm | 1.34 m/s, 245° | - | - |
| 1778002803 | 27.22° C | 39% | 1017.1 hPa | 0 mm | 0.45 m/s, 225° | - | - |
* Rain latest hour (hover to see other rain measurements)
** Current wind speed in m/s (hover to see current wind gust speed)